Weather History for Medicine Lodge, KS

Change the Weather History Date:

Friday, December 28, 2012

  Actual Average Record
Temperature  
Mean Temperature 22 °F 33 °F  
Max Temperature 31 °F 44 °F 73 °F (1928)
Min Temperature 13 °F 22 °F -9 °F (1924)
Degree Days  
Heating Degree Days 43 32  
Month to date heating degree days 744 845  
Since 1 July heating degree days 1480 1703  
Cooling Degree Days 0 0  
Month to date cooling degree days 0 0  
Year to date cooling degree days 2258 1770  
Moisture  
Dew Point 10 °F    
Average Humidity 55    
Maximum Humidity 74    
Minimum Humidity 36    
Precipitation  
Precipitation 0.00 in 0.02 in 0.53 in (1979)
Month to date precipitation 0.19 0.85  
Year to date precipitation 18.11 27.07  
Snow  
Snow 0.00 in 0.10 in - ()
Month to date snowfall 0.0 2.6  
Since 1 July snowfall 0.0 2.8  
Snow Depth 0.00 in    
Sea Level Pressure  
Sea Level Pressure 30.11 in    
Wind  
Wind Speed 12 mph (NNW)    
Max Wind Speed 21 mph    
Max Gust Speed 26 mph    
T = Trace of Precipitation, MM = Missing Value Source: NWS Daily Summary

Daily Weather History Graph

Daily Weather History Graph

Search for Another Location

Airport:

Trip Planner

Search our weather history database for the weather conditions in past years. The results will help you decide how hot, cold, wet, or windy it might be!

Date:

Astronomy

Dec. 28, 2012 Rise Set
Actual Time 7:47 AM CST 5:24 PM CST
Civil Twilight 7:18 AM CST 5:53 PM CST
Nautical Twilight 6:45 AM CST 6:26 PM CST
Astronomical Twilight 6:14 AM CST 6:58 PM CST
Moon 6:01 PM CST (12/28) 7:43 AM CST (12/28)
Length of Visible Light 10h 35m
Length of Day
9h 37m
Full, 100% of the Moon is Illuminated
Dec 28
Full
Jan 4
Last Quarter
Jan 11
New
Jan 18
First Quarter
Jan 26
Full

Hourly Weather History & Observations

Time (CST) Temp. Windchill Dew Point Humidity Pressure Visibility Wind Dir Wind Speed Gust Speed Precip Events Conditions
12:56 AM 26.1 °F 15.0 °F 17.1 °F 69% 30.02 in - NNW 12.7 mph - N/A   Unknown
1:56 AM 26.1 °F 15.6 °F 17.1 °F 69% 30.02 in - North 11.5 mph - N/A   Unknown
2:56 AM 25.0 °F 14.2 °F 17.1 °F 72% 30.04 in - North 11.5 mph - N/A   Unknown
3:56 AM 25.0 °F 14.2 °F 16.0 °F 69% 30.06 in - North 11.5 mph 18.4 mph N/A   Unknown
4:56 AM 24.1 °F 10.6 °F 15.1 °F 69% 30.03 in - NNW 17.3 mph 24.2 mph N/A   Unknown
5:56 AM 21.9 °F 9.2 °F 14.0 °F 72% 30.05 in - NNW 13.8 mph 18.4 mph N/A   Unknown
6:56 AM 19.9 °F 6.7 °F 12.0 °F 71% 30.06 in - NNW 13.8 mph - N/A   Unknown
7:56 AM 18.0 °F 6.1 °F 9.0 °F 68% 30.09 in - North 10.4 mph - N/A   Unknown
8:56 AM 18.0 °F 6.1 °F 9.0 °F 68% 30.11 in - NNW 10.4 mph - N/A   Unknown
9:56 AM 19.9 °F 6.7 °F 9.0 °F 62% 30.12 in - NNW 13.8 mph - N/A   Unknown
10:56 AM 25.0 °F 10.6 °F 8.1 °F 49% 30.13 in - North 20.7 mph 25.3 mph N/A   Unknown
11:56 AM 26.1 °F 13.6 °F 8.1 °F 47% 30.12 in - NNW 16.1 mph 24.2 mph N/A   Unknown
12:56 PM 28.0 °F 16.1 °F 7.0 °F 41% 30.09 in - NNW 16.1 mph 23.0 mph N/A   Unknown
1:56 PM 30.0 °F 19.1 °F 7.0 °F 38% 30.07 in - North 15.0 mph 24.2 mph N/A   Unknown
2:56 PM 30.9 °F 20.2 °F 8.1 °F 38% 30.07 in - North 15.0 mph 21.9 mph N/A   Unknown
3:56 PM 30.0 °F 19.5 °F 8.1 °F 40% 30.09 in - NNW 13.8 mph 23.0 mph N/A   Unknown
4:56 PM 27.0 °F 16.7 °F 8.1 °F 45% 30.11 in - NNW 11.5 mph - N/A   Unknown
5:56 PM 24.1 °F 15.2 °F 8.1 °F 51% 30.13 in - NNW 8.1 mph - N/A   Unknown
6:56 PM 21.9 °F 11.7 °F 9.0 °F 58% 30.17 in - NW 9.2 mph - N/A   Unknown
7:56 PM 19.0 °F 11.1 °F 8.1 °F 62% 30.19 in - NNW 5.8 mph - N/A   Unknown
8:56 PM 17.1 °F 11.7 °F 8.1 °F 68% 30.20 in - North 3.5 mph - N/A   Unknown
9:56 PM 15.1 °F 9.4 °F 7.0 °F 70% 30.21 in - North 3.5 mph - N/A   Unknown
10:56 PM 15.1 °F 7.7 °F 8.1 °F 74% 30.22 in - West 4.6 mph - N/A   Unknown
11:56 PM 14.0 °F 5.1 °F 7.0 °F 74% 30.25 in - WNW 5.8 mph - N/A   Unknown